Back to catalog

KUIPER-00290

AliveCommunicationsLEO
NORAD 68592·PAYLOAD·🇺🇸 United States

Launched Apr 4, 2026 from Cape Canaveral Space Force Station

Loading…

Next Passes (next 24 hours)

TLE

FreshSource: CelesTrak SupGP

Epoch: Sep 14, 2026, 20:18 UTC

1 68592C 26072V   26257.84629630  .00520270  00000+0  70031-1 0  2571
2 68592  51.9006 141.6724 0000756  84.9116 230.2479 14.78238179    13

Track KUIPER-00290 in real time with AllMySat

Download on the App Store